[[{"header":{"parameterUnit":"m.s-1","parameterCategory":2,"la1":30.2991,"la2":30.254,"lo1":-89.0895,"lo2":-89.0444,"dy":0.0017,"dx":0.0017,"nx":28,"ny":28,"refTime":"2025-12-31T09:00:00:Z","depth":"0","parameterNumber":2,"parameterNumberName":"U-component_of_CURRENTS"},"data":[0,0,0,0,0,0,0,0,0,0,0,0,0,0,0,0,0,0,0,0,0,0,0,0,0,0,0,0,0,0,0,0,0,0,0,0,0,0,0,0,0,0,0,0,0,0,0,0,0,0,0,0,0,0,0,0,0,0,0.4077,0.4078,0,0.4154,0.4154,0.4155,0.4167,0.4166,0.4165,0.4165,0.4182,0.4183,0.4184,0,0,0,0,0,0,0,0,0,0,0,0,0,0.394,0.3942,0.4077,0.4078,0.4079,0.4153,0.4155,0.4156,0.4167,0.4166,0.4165,0.4164,0.4181,0.4183,0.4184,0,0,0,0,0,0,0,0,0,0,0,0,0,0.4006,0.3943,0.4076,0.4093,0.4095,0.4153,0.4155,0.4156,0.4167,0.4166,0.4165,0.4164,0.4181,0.4183,0.4184,0.4216,0,0,0.4189,0.419,0,0,0,0,0,0,0,0,0.4003,0.4011,0.409,0.4092,0.4095,0.4149,0.4113,0.4173,0.4167,0.414,0.4165,0.4163,0.4166,0.4169,0.4187,0.4217,0.4218,0.419,0.4191,0.4191,0.4192,0,0,0,0,0,0,0,0.3998,0.4008,0.4107,0.4091,0.4094,0.4097,0.4105,0.4124,0.4157,0.4142,0.4143,0.4152,0.4167,0.4185,0.4187,0.4218,0.419,0.4191,0.4192,0.4193,0.4318,0.432,0,0,0,0,0,0,0.399,0.4004,0.4105,0.411,0.4045,0.41,0.4109,0.4133,0.4158,0.4162,0.4153,0.4152,0.4183,0.4185,0.4188,0.426,0.4191,0.4193,0.4194,0.4316,0.4318,0.4321,0,0,0,0,0,0,0.3987,0.3999,0.4102,0.4057,0.407,0.4104,0.413,0.4135,0.4156,0.4167,0.4169,0.4168,0.4182,0.4185,0.4218,0.4259,0.4194,0.4195,0.4313,0.4317,0.432,0.4382,0,0,0,0,0,0,0.3983,0.3998,0.4015,0.4057,0.4073,0.4143,0.4131,0.4137,0.4162,0.4162,0.4181,0.4181,0.4182,0.4216,0.422,0.426,0.4196,0.431,0.4315,0.4319,0.4377,0.4388,0.4396,0,0,0,0,0,0.3978,0.4006,0.4016,0.4028,0.4095,0.4144,0.4153,0.4172,0.4164,0.4184,0.4197,0.418,0.4246,0.4219,0.4223,0.4265,0.4308,0.4313,0.4318,0.4373,0.4386,0.4396,0,0,0,0,0,0,0.3947,0.4011,0.4022,0.4065,0.4104,0.4146,0.4167,0.4177,0.4206,0.4202,0.4205,0.4208,0.4259,0.4254,0.4223,0.4316,0.4277,0.4283,0.4318,0.4329,0.4338,0.4346,0.4198,0,0,0,0,0,0.3952,0.3993,0.4044,0.4077,0.4098,0.4133,0.4155,0.417,0.4199,0.4211,0.4227,0.4249,0.4286,0.4297,0.4327,0.4369,0.4415,0.4402,0.4411,0.4419,0.4431,0.4549,0.457,0.4338,0.4338,0.4338,0,0,0.3943,0.3987,0.4006,0.4074,0.4104,0.4153,0.4144,0.4183,0.4223,0.4208,0.4263,0.4284,0.4307,0.4364,0.4385,0.436,0.4514,0.4426,0.4432,0.444,0.4557,0.4579,0.4599,0.4342,0.4341,0.434,0,0,0.3955,0.3993,0.4033,0.4079,0.4135,0.4164,0.4176,0.4228,0.4249,0.4305,0.4313,0.4358,0.4402,0.4438,0.4458,0.4538,0.4565,0.4544,0.4592,0.4707,0.4727,0.4745,0.4851,0.4878,0.4543,0.4543,0.4543,0,0.3942,0.4009,0.4049,0.4106,0.4146,0.4171,0.4222,0.4257,0.4312,0.435,0.4328,0.4441,0.4446,0.4537,0.4559,0.456,0.4627,0.4542,0.472,0.4739,0.4757,0.486,0.4889,0.4546,0.4546,0.4546,0.4545,0,0.3989,0.4048,0.4076,0.4163,0.421,0.4256,0.4313,0.4367,0.4392,0.4429,0.452,0.4541,0.4609,0.462,0.4608,0.4736,0.4746,0.4724,0.469,0.4784,0.4887,0.4916,0.4552,0.455,0.4549,0.4548,0,0,0.3947,0.4082,0.4093,0.4155,0.4245,0.4294,0.4376,0.4466,0.4548,0.4579,0.4698,0.4726,0.4736,0.476,0.4761,0.4839,0.5011,0.483,0.4834,0.4932,0.528,0.5215,0.5241,0.5027,0.5032,0.5036,0.5307,0,0.397,0.4087,0.4145,0.4254,0.4324,0.4394,0.4478,0.4564,0.4637,0.4762,0.4789,0.4886,0.4788,0.4843,0.4901,0.5008,0.5089,0.4941,0.5175,0.5182,0.5112,0.5273,0.5051,0.5267,0.5335,0.534,0.5344,0,0.4006,0.4085,0.4194,0.4342,0.4376,0.444,0.4608,0.4686,0.4847,0.4913,0.4996,0.5036,0.5149,0.5064,0.5251,0.5166,0.5222,0.5279,0.5291,0.5227,0.5172,0.5182,0.5317,0.5142,0.5389,0.5385,0.5382,0,0.4006,0.4126,0.4217,0.4266,0.4426,0.4494,0.4573,0.4729,0.4824,0.5023,0.5127,0.5241,0.5336,0.5423,0.5478,0.5407,0.5709,0.5632,0.5622,0.5618,0.5472,0.5446,0.5459,0.5778,0.5778,0.5777,0.5776,0,0.4054,0.4142,0.4219,0.4299,0.4408,0.4501,0.465,0.4771,0.4942,0.508,0.5182,0.5319,0.5433,0.5584,0.5608,0.5718,0.5811,0.568,0.5703,0.5487,0.5461,0.5331,0.5281,0.5787,0.5785,0.5783,0.5781,0,0.4131,0.4167,0.4294,0.4414,0.4436,0.4532,0.4679,0.4802,0.4946,0.5151,0.522,0.5442,0.5636,0.5732,0.5938,0.589,0.5853,0.6006,0.5739,0.5724,0.5498,0.5462,0.5404,0.5242,0.6067,0.6068,0.6068,0,0.422,0.4279,0.4375,0.443,0.4497,0.4602,0.4687,0.4809,0.4925,0.5204,0.5312,0.5562,0.5706,0.5981,0.5993,0.6086,0.5877,0.5923,0.572,0.5501,0.548,0.5276,0.5126,0.5571,0.5567,0.5564,0.5561,0,0.4407,0.4411,0.4521,0.4575,0.4643,0.4701,0.4808,0.487,0.5031,0.5176,0.5376,0.5516,0.5761,0.5773,0.5904,0.5914,0.5639,0.5859,0.5714,0.5176,0.4879,0.4725,0.5379,0.5533,0.5536,0.5538,0.554,0.5541,0.4561,0.4632,0.4699,0.4744,0.479,0.4778,0.4789,0.4884,0.4987,0.5111,0.5311,0.5397,0.5518,0.5661,0.5652,0.5466,0.5458,0.5276,0.5286,0.5125,0.4837,0.5428,0.5541,0.5544,0.5546,0.5548,0.555,0,0.4704,0.4751,0.4847,0.4856,0.4849,0.483,0.4854,0.4799,0.4831,0.4966,0.5061,0.5064,0.5112,0.515,0.5099,0.4916,0.4671,0.4773,0.4415,0.4321,0.4929,0.4768,0.4618,0.4618,0.4618,0.4619,0.4619,0.4619,0.4802,0.4884,0.4876,0.4857,0.4836,0.4715,0.4665,0.459,0.46,0.4501,0.4437,0.4479,0.4668,0.4805,0.4627,0.4509,0.4143,0.3985,0.3976,0.4382,0.4426,0.4467,0.4299,0.4053,0.4052,0.3124,0.3117,0.3112]},{"header":{"parameterUnit":"m.s-1","parameterCategory":2,"la1":30.2991,"la2":30.254,"lo1":-89.0895,"lo2":-89.0444,"dy":0.0017,"dx":0.0017,"nx":28,"ny":28,"refTime":"2025-12-31T09:00:00:Z","depth":"0","parameterNumber":3,"parameterNumberName":"V-component_of_CURRENTS"},"data":[0,0,0,0,0,0,0,0,0,0,0,0,0,0,0,0,0,0,0,0,0,0,0,0,0,0,0,0,0,0,0,0,0,0,0,0,0,0,0,0,0,0,0,0,0,0,0,0,0,0,0,0,0,0,0,0,0,0,-0.001,-0.0011,0,-0.0065,-0.0066,-0.0066,-0.0124,-0.0125,-0.0126,-0.0126,-0.0267,-0.027,-0.0273,0,0,0,0,0,0,0,0,0,0,0,0,0,-0.0014,-0.0014,-0.001,-0.0011,-0.0011,-0.0065,-0.0066,-0.0067,-0.0124,-0.0125,-0.0126,-0.0126,-0.0266,-0.027,-0.0273,0,0,0,0,0,0,0,0,0,0,0,0,0,-0.0037,-0.0014,-0.001,-0.0045,-0.0048,-0.0065,-0.0066,-0.0067,-0.0124,-0.0125,-0.0126,-0.0127,-0.0265,-0.0269,-0.0274,-0.0285,0,0,-0.0288,-0.029,0,0,0,0,0,0,0,0,-0.0036,-0.0037,-0.0039,-0.0043,-0.0046,-0.0087,-0.0119,-0.0143,-0.0124,-0.0098,-0.0126,-0.0127,-0.0212,-0.0222,-0.0232,-0.0291,-0.0298,-0.0289,-0.0292,-0.0294,-0.0295,0,0,0,0,0,0,0,-0.0034,-0.0035,-0.0034,-0.004,-0.0044,-0.0077,-0.0081,-0.0124,-0.0153,-0.01,-0.0104,-0.0106,-0.0215,-0.0227,-0.0236,-0.03,-0.0289,-0.0293,-0.0296,-0.0298,-0.0383,-0.0382,0,0,0,0,0,0,-0.0018,-0.0033,-0.0033,-0.0036,-0.0041,-0.0076,-0.0081,-0.0075,-0.015,-0.0161,-0.0105,-0.0108,-0.0218,-0.023,-0.0241,-0.0249,-0.0294,-0.0298,-0.0301,-0.0383,-0.0383,-0.0382,0,0,0,0,0,0,-0.0018,-0.0017,-0.003,-0.0035,-0.0039,-0.0074,-0.0068,-0.0075,-0.0085,-0.0153,-0.0166,-0.0107,-0.0219,-0.0234,-0.0271,-0.0256,-0.03,-0.0305,-0.0384,-0.0383,-0.0382,-0.0273,0,0,0,0,0,0,-0.0018,-0.0017,-0.0009,-0.0033,-0.0038,-0.003,-0.0067,-0.0076,-0.0084,-0.0089,-0.0159,-0.0173,-0.0221,-0.0263,-0.0276,-0.0263,-0.0308,-0.0385,-0.0384,-0.0383,-0.0277,-0.0268,-0.0261,0,0,0,0,0,-0.0018,0.0007,-0.0008,-0.0009,-0.0025,-0.0029,-0.0034,-0.0065,-0.0083,-0.0079,-0.0127,-0.0171,-0.0265,-0.0266,-0.0281,-0.027,-0.0385,-0.0384,-0.0383,-0.0281,-0.027,-0.0261,0,0,0,0,0,0,0.0015,0.0003,-0.0015,0.0006,-0.0009,-0.0037,-0.0035,-0.0056,-0.0088,-0.0096,-0.0163,-0.018,-0.0208,-0.0253,-0.0252,-0.0292,-0.0333,-0.0334,-0.025,-0.0241,-0.0233,-0.0193,-0.0312,0,0,0,0,0,0.0026,0.0037,0.0016,0.0033,0.0028,-0.0003,-0.001,-0.0028,-0.0058,-0.0073,-0.0119,-0.0171,-0.0213,-0.0237,-0.0282,-0.0301,-0.0312,-0.0304,-0.0296,-0.0289,-0.0267,-0.0254,-0.0242,-0.0378,-0.0378,-0.0378,0,0,0.0043,0.0038,0.0044,0.0039,0.0023,0.0032,-0.0009,-0.0008,-0.0001,-0.0084,-0.0092,-0.0145,-0.0212,-0.0234,-0.025,-0.0269,-0.0259,-0.0287,-0.028,-0.0262,-0.0251,-0.0238,-0.0226,-0.0377,-0.0377,-0.0377,0,0,0.0088,0.0079,0.01,0.0094,0.0081,0.0064,0.007,0.0045,0.0032,0.0016,-0.0039,-0.0074,-0.0143,-0.0176,-0.0206,-0.0178,-0.0216,-0.0201,-0.0126,-0.0114,-0.0102,-0.0092,-0.0092,-0.0082,-0.0195,-0.0195,-0.0195,0,0.0106,0.0133,0.0106,0.0124,0.013,0.0086,0.0112,0.0096,0.0064,0.0074,0.0024,-0.0038,-0.0111,-0.0113,-0.0117,-0.0157,-0.0157,-0.0157,-0.01,-0.009,-0.0081,-0.0084,-0.0074,-0.019,-0.019,-0.0191,-0.0192,0,0.0166,0.0182,0.0197,0.0204,0.0206,0.0223,0.0201,0.0202,0.0175,0.0166,0.0158,0.007,0.0038,0.0002,-0.006,-0.003,-0.0053,-0.0089,-0.0116,-0.006,-0.0068,-0.006,-0.0182,-0.0184,-0.0186,-0.0187,0,0,0.0217,0.0235,0.024,0.027,0.0252,0.0277,0.0284,0.0302,0.0353,0.029,0.0348,0.0239,0.0205,0.0169,0.0096,0.0091,0.0124,0.0032,0.003,0.0048,0.0156,0.0144,0.0151,0.0109,0.0111,0.0113,0.0125,0,0.0269,0.0337,0.032,0.0387,0.0424,0.0392,0.0424,0.0435,0.0428,0.0475,0.0397,0.0417,0.0266,0.027,0.023,0.0173,0.0151,0.0124,0.0084,0.0083,0.008,0.0162,0.0122,0.0131,0.0132,0.0133,0.0134,0,0.033,0.0373,0.0446,0.0513,0.0529,0.0564,0.0634,0.0658,0.0689,0.0689,0.0672,0.0625,0.0595,0.0469,0.038,0.0376,0.0266,0.0205,0.0203,0.0165,0.0087,0.0073,0.0145,-0.0133,0.0146,0.0145,0.0144,0,0.0411,0.0468,0.054,0.0556,0.0613,0.0658,0.0699,0.0739,0.081,0.0854,0.0928,0.0846,0.0872,0.0717,0.0541,0.0476,0.0471,0.0363,0.0244,0.0241,0.0186,0.0176,0.0002,0.0302,0.0302,0.0302,0.0302,0,0.0484,0.0553,0.0596,0.0647,0.0772,0.0772,0.0916,0.094,0.1025,0.1171,0.1062,0.1175,0.0944,0.0895,0.0659,0.0506,0.0553,0.0289,0.0261,0.022,0.0213,-0.005,-0.021,0.0303,0.0303,0.0303,0.0302,0,0.0581,0.0589,0.0697,0.0777,0.0817,0.092,0.107,0.1182,0.1242,0.1433,0.1469,0.1472,0.1411,0.1159,0.0967,0.072,0.0379,0.0454,0.0419,0.0385,-0.0025,-0.0175,-0.0355,-0.0461,0.0318,0.0318,0.0318,0,0.0647,0.0704,0.0815,0.0894,0.0944,0.109,0.1202,0.1283,0.1414,0.1638,0.1753,0.1776,0.1828,0.1534,0.1096,0.0717,0.0421,0.0426,0.027,-0.0019,-0.0208,-0.0332,-0.0417,0.0229,0.0228,0.0228,0.0227,0,0.0793,0.0818,0.0913,0.1053,0.1177,0.1321,0.1491,0.1628,0.1771,0.1971,0.2226,0.231,0.2039,0.168,0.1156,0.0854,0.0214,0.0402,0.0117,-0.0265,-0.0421,-0.0545,0.0176,0.0222,0.0223,0.0223,0.0224,0.0224,0.0921,0.1002,0.1099,0.1232,0.1368,0.1529,0.1687,0.1898,0.2159,0.2481,0.2545,0.2729,0.2142,0.1431,0.1024,0.0174,0.0177,-0.0122,-0.0271,-0.036,-0.0496,0.022,0.0224,0.0225,0.0225,0.0225,0.0226,0,0.1052,0.1128,0.127,0.1417,0.1565,0.1603,0.1861,0.2047,0.2393,0.2704,0.2947,0.2712,0.202,0.126,0.0137,-0.0407,-0.0632,-0.0723,-0.0946,-0.0992,-0.0345,-0.0386,-0.0529,-0.0529,-0.0529,-0.0529,-0.0528,-0.0528,0.1139,0.1265,0.1305,0.1537,0.1652,0.1864,0.2013,0.2327,0.2586,0.2947,0.305,0.307,0.2392,0.0486,-0.0778,-0.1055,-0.1473,-0.1568,-0.1719,-0.1352,-0.1309,-0.1269,-0.1346,-0.1688,-0.1689,-0.2324,-0.2331,-0.2337]}],[{"header":{"parameterUnit":"m.s-1","parameterCategory":2,"la1":30.2991,"la2":30.254,"lo1":-89.0895,"lo2":-89.0444,"dy":0.0017,"dx":0.0017,"nx":28,"ny":28,"refTime":"2025-12-31T09:00:00:Z","depth":"2","parameterNumber":2,"parameterNumberName":"U-component_of_CURRENTS"},"data":[0,0,0,0,0,0,0,0,0,0,0,0,0,0,0,0,0,0,0,0,0,0,0,0,0,0,0,0,0,0,0,0,0,0,0,0,0,0,0,0,0,0,0,0,0,0,0,0,0,0,0,0,0,0,0,0,0,0,0.3053,0.3054,0,0.3093,0.3093,0.3093,0.3109,0.3109,0.3109,0.3109,0.3202,0.3204,0.3206,0,0,0,0,0,0,0,0,0,0,0,0,0,0.2926,0.2929,0.3053,0.3054,0.3055,0.3093,0.3093,0.3093,0.3109,0.3109,0.3109,0.3109,0.3201,0.3203,0.3206,0,0,0,0,0,0,0,0,0,0,0,0,0,0.2972,0.2929,0.3053,0.3069,0.3071,0.3093,0.3093,0.3093,0.3109,0.3109,0.3109,0.3109,0.32,0.3203,0.3207,0.3223,0,0,0.3217,0.3219,0,0,0,0,0,0,0,0,0.297,0.2977,0.3066,0.3068,0.3071,0.3099,0.3082,0.314,0.3109,0.3091,0.3109,0.311,0.3174,0.3179,0.3181,0.3227,0.3231,0.3217,0.322,0.3221,0.3222,0,0,0,0,0,0,0,0.2967,0.2975,0.3066,0.3067,0.307,0.3053,0.306,0.3092,0.3129,0.3093,0.3095,0.3104,0.3175,0.3178,0.3184,0.3232,0.3217,0.322,0.3223,0.3224,0.3374,0.3376,0,0,0,0,0,0,0.2972,0.2972,0.3065,0.3067,0.3023,0.3055,0.3063,0.3087,0.3128,0.3135,0.3104,0.3105,0.3172,0.318,0.3187,0.3275,0.3221,0.3224,0.3226,0.3372,0.3375,0.3377,0,0,0,0,0,0,0.2969,0.298,0.3063,0.3022,0.3032,0.3058,0.3084,0.3088,0.3107,0.3136,0.3143,0.3121,0.3172,0.3182,0.3248,0.3276,0.3226,0.3229,0.337,0.3373,0.3376,0.3408,0,0,0,0,0,0,0.2965,0.2979,0.2984,0.3023,0.3034,0.3094,0.3085,0.3088,0.3112,0.3114,0.3154,0.3161,0.3173,0.3243,0.3251,0.328,0.3232,0.3368,0.3372,0.3375,0.3405,0.3412,0.3418,0,0,0,0,0,0.2961,0.2969,0.2984,0.2995,0.3046,0.3095,0.31,0.3115,0.3113,0.3131,0.3166,0.3161,0.3271,0.3247,0.3257,0.3287,0.3366,0.337,0.3375,0.3402,0.341,0.3418,0,0,0,0,0,0,0.2915,0.2973,0.299,0.3016,0.3062,0.31,0.3115,0.3125,0.3162,0.3172,0.3189,0.3201,0.3281,0.3278,0.3251,0.3343,0.3316,0.3323,0.3334,0.3342,0.3349,0.3384,0.3234,0,0,0,0,0,0.291,0.2936,0.2993,0.3017,0.3048,0.3084,0.3101,0.3122,0.3164,0.3179,0.3206,0.3244,0.3303,0.3316,0.3371,0.3406,0.3449,0.3432,0.3439,0.3444,0.3481,0.357,0.3589,0.3391,0.3391,0.3391,0,0,0.2897,0.2935,0.2947,0.3009,0.305,0.3098,0.3096,0.3144,0.3178,0.3186,0.3241,0.3287,0.3327,0.3389,0.3419,0.3385,0.3521,0.345,0.3454,0.3488,0.3577,0.3596,0.3614,0.3394,0.3394,0.3393,0,0,0.2894,0.2933,0.2956,0.3005,0.3074,0.3109,0.3129,0.3185,0.3208,0.3273,0.3298,0.3365,0.342,0.346,0.3486,0.356,0.3577,0.3561,0.3595,0.368,0.3698,0.3713,0.3782,0.3803,0.3534,0.3534,0.3534,0,0.2876,0.2939,0.2969,0.3017,0.3062,0.3121,0.3169,0.3205,0.3268,0.3308,0.3304,0.3438,0.3465,0.3553,0.3579,0.3578,0.3623,0.3554,0.369,0.3706,0.3722,0.3788,0.3812,0.3536,0.3536,0.3536,0.3535,0,0.2905,0.2963,0.2995,0.3079,0.3106,0.3185,0.3238,0.3282,0.3324,0.3373,0.3484,0.353,0.3613,0.3616,0.3624,0.3737,0.3733,0.3709,0.3667,0.3744,0.3808,0.3832,0.3539,0.3538,0.3538,0.3537,0,0,0.2875,0.2997,0.3011,0.3063,0.3166,0.3194,0.3262,0.3359,0.344,0.349,0.3595,0.3674,0.3718,0.3753,0.376,0.3812,0.395,0.3803,0.3806,0.3868,0.414,0.4014,0.4028,0.3945,0.395,0.3954,0.4136,0,0.2919,0.3005,0.3054,0.3148,0.3207,0.3278,0.335,0.3421,0.3508,0.3626,0.3683,0.3808,0.376,0.3823,0.3869,0.3971,0.4018,0.3904,0.4061,0.4067,0.3943,0.4054,0.3737,0.3863,0.4159,0.4163,0.4166,0,0.2939,0.3005,0.3092,0.3214,0.3249,0.3308,0.344,0.3515,0.3677,0.3756,0.386,0.3934,0.4056,0.3997,0.4168,0.41,0.4134,0.4169,0.4176,0.4073,0.3986,0.3838,0.3895,0.4206,0.4203,0.42,0.4197,0,0.2898,0.3028,0.3101,0.3147,0.3288,0.334,0.3424,0.3562,0.3665,0.3859,0.3967,0.4105,0.4206,0.4283,0.4335,0.429,0.4506,0.4449,0.4355,0.4345,0.4118,0.408,0.4563,0.4563,0.4562,0.4562,0.4561,0,0.2936,0.2998,0.3097,0.3157,0.3265,0.3332,0.3482,0.3595,0.3783,0.3923,0.4041,0.4146,0.4287,0.4396,0.4422,0.447,0.4576,0.4411,0.4402,0.4116,0.4077,0.4402,0.4381,0.4568,0.4567,0.4566,0.4564,0,0.2893,0.2976,0.308,0.3223,0.326,0.3334,0.3519,0.3634,0.381,0.3992,0.4065,0.4252,0.4394,0.4485,0.4638,0.4576,0.464,0.4604,0.425,0.4194,0.4406,0.4384,0.4578,0.4576,0.4574,0.4572,0.457,0,0.2942,0.2959,0.3094,0.3164,0.3249,0.3361,0.3454,0.3637,0.3727,0.4011,0.4069,0.4292,0.437,0.4542,0.4519,0.4572,0.4617,0.4266,0.4114,0.4445,0.4417,0.4399,0.4381,0.3831,0.3823,0.3817,0.3812,0,0.2973,0.2976,0.3049,0.3166,0.3269,0.3355,0.3468,0.3541,0.374,0.3877,0.4017,0.4131,0.4295,0.4192,0.4257,0.4226,0.4244,0.4142,0.4628,0.3853,0.3749,0.3717,0.3723,0.3758,0.3763,0.3767,0.377,0.3773,0.3018,0.3029,0.3062,0.3159,0.3255,0.3279,0.3279,0.3402,0.3499,0.3629,0.3806,0.3858,0.3931,0.3867,0.3768,0.3705,0.3974,0.3801,0.3817,0.384,0.3699,0.3593,0.3548,0.3552,0.3556,0.3559,0.3562,0,0.3029,0.2987,0.3048,0.3101,0.3089,0.3173,0.3214,0.3161,0.3172,0.339,0.347,0.3251,0.3222,0.3299,0.3122,0.3122,0.3071,0.3003,0.2903,0.2962,0.3013,0.2824,0.2445,0.2441,0.2437,0.2433,0,0,0.3045,0.2989,0.2933,0.285,0.2887,0.2833,0.2804,0.278,0.2844,0.2839,0.2871,0.3125,0.3241,0.2804,0.2752,0.2564,0.274,0.248,0.339,0.3334,0.338,0.3503,0.3284,0,0,0,0,0]},{"header":{"parameterUnit":"m.s-1","parameterCategory":2,"la1":30.2991,"la2":30.254,"lo1":-89.0895,"lo2":-89.0444,"dy":0.0017,"dx":0.0017,"nx":28,"ny":28,"refTime":"2025-12-31T09:00:00:Z","depth":"2","parameterNumber":3,"parameterNumberName":"V-component_of_CURRENTS"},"data":[0,0,0,0,0,0,0,0,0,0,0,0,0,0,0,0,0,0,0,0,0,0,0,0,0,0,0,0,0,0,0,0,0,0,0,0,0,0,0,0,0,0,0,0,0,0,0,0,0,0,0,0,0,0,0,0,0,0,0.0038,0.0038,0,-0.0007,-0.0008,-0.0009,-0.0057,-0.0058,-0.0059,-0.0059,-0.0174,-0.0177,-0.0179,0,0,0,0,0,0,0,0,0,0,0,0,0,0.0026,0.0027,0.0038,0.0038,0.0037,-0.0007,-0.0008,-0.0009,-0.0057,-0.0058,-0.0059,-0.0059,-0.0173,-0.0176,-0.0179,0,0,0,0,0,0,0,0,0,0,0,0,0,0.001,0.0027,0.0038,0.0009,0.0006,-0.0007,-0.0008,-0.0009,-0.0057,-0.0058,-0.0059,-0.006,-0.0172,-0.0176,-0.018,-0.0188,0,0,-0.0192,-0.0193,0,0,0,0,0,0,0,0,0.0011,0.001,0.0014,0.0011,0.0008,-0.0026,-0.0054,-0.0072,-0.0057,-0.0035,-0.0059,-0.006,-0.0129,-0.0137,-0.0145,-0.0194,-0.0199,-0.0192,-0.0194,-0.0196,-0.0197,0,0,0,0,0,0,0,0.0012,0.0011,0.0018,0.0013,0.001,-0.0021,-0.0024,-0.0058,-0.008,-0.0037,-0.004,-0.0042,-0.0132,-0.0141,-0.0148,-0.02,-0.0192,-0.0195,-0.0198,-0.0199,-0.0271,-0.0271,0,0,0,0,0,0,0.0026,0.0013,0.0019,0.0017,0.0009,-0.002,-0.0023,-0.0016,-0.0078,-0.0087,-0.0041,-0.0044,-0.0134,-0.0144,-0.0153,-0.0156,-0.0196,-0.02,-0.0202,-0.0272,-0.0271,-0.0271,0,0,0,0,0,0,0.0026,0.0027,0.0021,0.0014,0.0012,-0.0018,-0.001,-0.0016,-0.0024,-0.008,-0.0091,-0.0042,-0.0135,-0.0147,-0.018,-0.0161,-0.0201,-0.0205,-0.0272,-0.0271,-0.0271,-0.0169,0,0,0,0,0,0,0.0026,0.0027,0.0037,0.0016,0.0013,0.0024,-0.0009,-0.0017,-0.0023,-0.0027,-0.0085,-0.0096,-0.0137,-0.0174,-0.0184,-0.0167,-0.0208,-0.0273,-0.0272,-0.0271,-0.0173,-0.0165,-0.0158,0,0,0,0,0,0.0026,0.0051,0.0038,0.0039,0.0028,0.0025,0.0021,-0.0005,-0.0022,-0.0017,-0.0061,-0.0095,-0.0176,-0.0176,-0.0188,-0.0173,-0.0273,-0.0272,-0.0271,-0.0176,-0.0167,-0.0159,0,0,0,0,0,0,0.0053,0.0048,0.0034,0.0056,0.0044,0.0018,0.0021,0.0003,-0.0026,-0.0034,-0.009,-0.0104,-0.0129,-0.0165,-0.0164,-0.0193,-0.023,-0.0231,-0.0154,-0.0145,-0.0138,-0.011,-0.0211,0,0,0,0,0,0.0064,0.008,0.0064,0.008,0.0077,0.0048,0.0044,0.0028,0.0,-0.0013,-0.0053,-0.0098,-0.0133,-0.015,-0.0192,-0.0202,-0.0239,-0.0201,-0.0194,-0.0187,-0.0173,-0.0211,-0.0205,-0.0268,-0.0268,-0.0268,0,0,0.0076,0.0078,0.0084,0.0087,0.0071,0.0086,0.0043,0.0044,0.0055,-0.0022,-0.0026,-0.0077,-0.0134,-0.015,-0.0163,-0.0176,-0.0191,-0.0186,-0.0179,-0.0169,-0.0209,-0.0203,-0.0198,-0.0267,-0.0267,-0.0267,0,0,0.0118,0.0111,0.0139,0.0136,0.0128,0.0114,0.0119,0.0097,0.0083,0.0069,0.0018,-0.0018,-0.0071,-0.0101,-0.0125,-0.0102,-0.0156,-0.0117,-0.0049,-0.0085,-0.008,-0.0076,-0.0117,-0.0118,-0.0106,-0.0105,-0.0105,0,0.0132,0.0168,0.0145,0.0172,0.0182,0.0135,0.0169,0.015,0.012,0.0119,0.0079,0.0008,-0.0046,-0.0053,-0.005,-0.0083,-0.0115,-0.0074,-0.0074,-0.007,-0.0068,-0.0112,-0.0113,-0.01,-0.0101,-0.0102,-0.0102,0,0.0194,0.022,0.0236,0.0257,0.0266,0.0283,0.0263,0.0258,0.0228,0.021,0.0185,0.0106,0.0071,0.0044,0.0001,0.0002,-0.0031,-0.0064,-0.009,-0.0055,-0.0104,-0.0108,-0.0093,-0.0095,-0.0097,-0.0098,0,0,0.0229,0.0273,0.0278,0.0315,0.0315,0.0338,0.0348,0.0357,0.0383,0.0319,0.0341,0.0258,0.0213,0.0183,0.0122,0.0087,0.0065,0.0029,0.0025,0.0,-0.0016,-0.0068,-0.0078,0.0036,0.0036,0.0036,-0.0058,0,0.0283,0.0364,0.0367,0.0444,0.0486,0.0459,0.0484,0.0483,0.0462,0.0466,0.0378,0.0369,0.0268,0.0258,0.0203,0.0108,0.0061,0.0093,-0.0056,-0.0061,-0.0101,-0.0082,-0.0045,-0.0128,-0.0062,-0.0063,-0.0063,0,0.0344,0.0395,0.0481,0.0559,0.0574,0.0609,0.0655,0.0677,0.0657,0.0639,0.0598,0.0529,0.0468,0.0375,0.0222,0.0249,0.0126,0.0037,0.003,-0.0053,-0.0119,-0.0153,-0.0137,-0.007,-0.0069,-0.0069,-0.0068,0,0.0398,0.0481,0.0561,0.0582,0.0648,0.0683,0.0719,0.0729,0.078,0.076,0.0789,0.0677,0.0645,0.0479,0.0269,0.0256,0.0091,0.0048,-0.012,-0.0126,-0.0142,-0.0149,-0.0066,-0.0066,-0.0066,-0.0066,-0.0065,0,0.0464,0.0529,0.0595,0.0639,0.0748,0.0766,0.0876,0.0882,0.0925,0.1014,0.0893,0.0914,0.0672,0.0539,0.0326,0.0093,0.0127,-0.0103,-0.0149,-0.0108,-0.011,-0.0099,-0.0101,-0.0069,-0.0068,-0.0068,-0.0067,0,0.0516,0.055,0.065,0.0735,0.0776,0.0856,0.0996,0.1077,0.1098,0.1208,0.1215,0.1105,0.0934,0.0668,0.0399,0.0187,-0.0043,-0.0143,-0.0085,-0.0124,-0.025,-0.0246,-0.0319,-0.0321,-0.0323,-0.0325,-0.0327,0,0.0548,0.0601,0.0725,0.0797,0.0842,0.0972,0.107,0.1148,0.1246,0.1329,0.1383,0.1257,0.1171,0.0738,0.0347,-0.0029,-0.0071,-0.0245,-0.0274,-0.0236,-0.0274,-0.0267,-0.026,-0.0257,-0.0258,-0.0259,-0.0259,0,0.0604,0.0638,0.0714,0.0868,0.0983,0.1144,0.1289,0.1404,0.1514,0.1607,0.167,0.1611,0.1203,0.0811,0.0284,0.003,-0.0183,-0.0271,-0.0234,-0.0202,-0.0186,-0.0221,-0.0215,-0.0265,-0.0264,-0.0264,-0.0264,-0.0264,0.0618,0.0681,0.0779,0.0939,0.1078,0.1281,0.1446,0.1605,0.1786,0.1938,0.1852,0.1775,0.1333,0.065,0.0209,-0.0243,-0.0229,-0.0381,-0.0375,-0.0369,-0.0348,-0.0337,-0.0441,-0.0441,-0.0441,-0.0442,-0.0442,0,0.0627,0.0714,0.0859,0.1042,0.1226,0.1305,0.1569,0.1735,0.1971,0.2046,0.2082,0.1658,0.1215,0.0726,0.0048,-0.0366,-0.0379,-0.0481,-0.04,-0.0392,-0.0385,-0.0362,-0.0461,-0.0462,-0.0463,-0.0464,0,0,0.0623,0.0747,0.085,0.1135,0.1289,0.1559,0.1733,0.1958,0.2072,0.214,0.2089,0.1942,0.1342,0.0858,0.03,-0.0077,-0.0136,-0.015,-0.0094,0.0074,0.0086,-0.0293,-0.0244,0,0,0,0,0]}],[{"header":{"parameterUnit":"m.s-1","parameterCategory":2,"la1":30.2991,"la2":30.254,"lo1":-89.0895,"lo2":-89.0444,"dy":0.0017,"dx":0.0017,"nx":28,"ny":28,"refTime":"2025-12-31T09:00:00:Z","depth":"4","parameterNumber":2,"parameterNumberName":"U-component_of_CURRENTS"},"data":[0,0,0,0,0,0,0,0,0,0,0,0,0,0,0,0,0,0,0,0,0,0,0,0,0,0,0,0,0,0,0,0,0,0,0,0,0,0,0,0,0,0,0,0,0,0,0,0,0,0,0,0,0,0,0,0,0,0,0.1702,0.1703,0,0.1785,0.1785,0.1786,0.1851,0.1852,0.1853,0.1854,0.1959,0.1961,0.1964,0,0,0,0,0,0,0,0,0,0,0,0,0,0.1584,0.1586,0.1702,0.1704,0.1705,0.1784,0.1785,0.1786,0.1851,0.1852,0.1853,0.1854,0.1959,0.1961,0.1964,0,0,0,0,0,0,0,0,0,0,0,0,0,0.1646,0.1586,0.1702,0.1748,0.1753,0.1784,0.1785,0.1787,0.1851,0.1852,0.1853,0.1854,0.1958,0.1961,0.1964,0.1959,0,0,0.1974,0.1975,0,0,0,0,0,0,0,0,0.1642,0.165,0.174,0.1745,0.1751,0.181,0.1783,0.1846,0.185,0.1812,0.1854,0.1855,0.1912,0.1919,0.1929,0.1964,0.1968,0.1974,0.1976,0.1977,0.1978,0,0,0,0,0,0,0,0.1638,0.1647,0.1733,0.1741,0.1748,0.1758,0.1769,0.1795,0.1853,0.1815,0.1821,0.1832,0.1915,0.1926,0.1932,0.197,0.1974,0.1976,0.1978,0.198,0.2125,0.2127,0,0,0,0,0,0,0.1631,0.1643,0.1731,0.1736,0.17,0.176,0.1771,0.1789,0.1853,0.1864,0.1831,0.1835,0.192,0.1928,0.1936,0.2036,0.1977,0.198,0.1982,0.2123,0.2126,0.2128,0,0,0,0,0,0,0.1628,0.1638,0.1727,0.1692,0.1704,0.1761,0.178,0.179,0.1843,0.1865,0.1876,0.1879,0.1921,0.1932,0.2002,0.2037,0.1981,0.1984,0.2121,0.2124,0.2127,0.217,0,0,0,0,0,0,0.1625,0.1637,0.1658,0.1692,0.1706,0.1769,0.1779,0.179,0.1846,0.1853,0.1909,0.1917,0.1923,0.1997,0.2005,0.204,0.1987,0.2118,0.2122,0.2126,0.2166,0.2175,0.2181,0,0,0,0,0,0.162,0.1635,0.1659,0.167,0.173,0.1771,0.178,0.1821,0.1848,0.1874,0.1921,0.1918,0.2027,0.2002,0.201,0.2047,0.2116,0.2121,0.2125,0.2163,0.2173,0.2181,0,0,0,0,0,0,0.1598,0.1644,0.1671,0.1702,0.1748,0.1783,0.1814,0.1844,0.1901,0.1924,0.1944,0.1957,0.2029,0.2036,0.2008,0.2101,0.2071,0.2077,0.2096,0.2106,0.2113,0.2128,0.1989,0,0,0,0,0,0.1602,0.1628,0.1677,0.1707,0.1735,0.1785,0.1813,0.1847,0.1894,0.1922,0.1957,0.2003,0.2046,0.2077,0.2108,0.2161,0.2189,0.2191,0.2199,0.2205,0.2224,0.2308,0.2325,0.2143,0.2143,0.2142,0,0,0.1599,0.1632,0.1647,0.1705,0.1747,0.1786,0.1806,0.1864,0.1908,0.1924,0.2,0.2032,0.2067,0.2126,0.2159,0.2143,0.2269,0.2211,0.2216,0.2232,0.2314,0.2332,0.2348,0.2146,0.2145,0.2145,0,0,0.1594,0.1646,0.1663,0.1706,0.1776,0.1811,0.1838,0.19,0.1947,0.2018,0.2042,0.2104,0.2164,0.2195,0.2219,0.229,0.2306,0.2301,0.2353,0.2433,0.2449,0.2463,0.2509,0.2527,0.2305,0.2305,0.2305,0,0.1594,0.1623,0.1676,0.1709,0.1752,0.1828,0.1866,0.192,0.1996,0.2046,0.2055,0.2177,0.2198,0.2281,0.2305,0.2308,0.235,0.2311,0.2444,0.2458,0.2472,0.2515,0.2535,0.2308,0.2307,0.2307,0.2307,0,0.1602,0.1633,0.1655,0.1723,0.1779,0.1828,0.1911,0.1973,0.2043,0.2102,0.2215,0.2256,0.2337,0.2343,0.2349,0.2456,0.2452,0.2441,0.2418,0.2493,0.2533,0.2553,0.2311,0.2311,0.231,0.2309,0,0,0.157,0.1642,0.1652,0.1688,0.1797,0.1842,0.1931,0.2033,0.212,0.2199,0.231,0.2376,0.2431,0.2462,0.2481,0.254,0.2657,0.2541,0.2543,0.258,0.2831,0.2639,0.2641,0.2681,0.2685,0.2688,0.2814,0,0.1563,0.1613,0.166,0.1727,0.1768,0.1866,0.1948,0.206,0.2171,0.2295,0.2378,0.2496,0.247,0.2537,0.2593,0.2657,0.2714,0.2624,0.2758,0.2761,0.2577,0.2659,0.2701,0.2829,0.2833,0.2836,0.2838,0,0.1549,0.1591,0.1651,0.1745,0.1779,0.1844,0.2016,0.2099,0.2284,0.2378,0.2511,0.26,0.2724,0.2691,0.2837,0.279,0.2824,0.2848,0.2854,0.2676,0.2605,0.2743,0.2873,0.2871,0.2868,0.2866,0.2863,0,0.1499,0.1578,0.1633,0.1669,0.1795,0.1862,0.1954,0.2137,0.2244,0.2465,0.2574,0.273,0.2836,0.2915,0.2974,0.2939,0.3116,0.307,0.2921,0.2907,0.3022,0.3005,0.3175,0.3175,0.3175,0.3175,0.3174,0,0.1453,0.1489,0.1624,0.1648,0.1764,0.1862,0.2013,0.213,0.2324,0.2459,0.2631,0.2745,0.2905,0.3018,0.3043,0.304,0.318,0.295,0.2938,0.3034,0.3018,0.3034,0.3016,0.3179,0.3178,0.3177,0.3177,0,0.1349,0.1441,0.15,0.1651,0.1737,0.1818,0.204,0.2132,0.233,0.2513,0.2596,0.2813,0.2948,0.3063,0.3199,0.3108,0.3138,0.3098,0.3203,0.3191,0.2857,0.284,0.2948,0.2942,0.2938,0.2934,0.2931,0,0.1274,0.1305,0.1496,0.1574,0.1647,0.1807,0.1923,0.2136,0.2231,0.2516,0.2575,0.2799,0.2918,0.2963,0.3074,0.3126,0.3078,0.3069,0.2944,0.2861,0.284,0.283,0.282,0.2923,0.2922,0.2921,0.292,0,0.1127,0.1221,0.126,0.1442,0.158,0.1722,0.189,0.1966,0.2193,0.2403,0.2529,0.2627,0.2764,0.2854,0.2922,0.2939,0.3064,0.3019,0.3027,0.291,0.2833,0.2814,0.2809,0.2903,0.2906,0.2907,0.2908,0,0.1001,0.1011,0.1115,0.1253,0.142,0.1553,0.1692,0.182,0.1963,0.2279,0.2315,0.2539,0.274,0.2758,0.2816,0.2831,0.2774,0.2668,0.2693,0.2712,0.2572,0.2435,0.2393,0,0,0,0,0,0.0879,0.0882,0.0948,0.1086,0.1231,0.1365,0.1613,0.1748,0.2011,0.205,0.2181,0.2306,0.2417,0.2524,0.2492,0.2676,0.2758,0.2622,0.2641,0.2814,0.2833,0.2686,0,0,0,0,0,0,0.0792,0.0835,0.0858,0.0896,0.0974,0.1145,0.1304,0.1508,0.1553,0.1835,0.1919,0.2129,0.2274,0.2394,0.2426,0.2459,0.242,0.2769,0.2763,0.2803,0.282,0.2835,0.2692,0,0,0,0,0]},{"header":{"parameterUnit":"m.s-1","parameterCategory":2,"la1":30.2991,"la2":30.254,"lo1":-89.0895,"lo2":-89.0444,"dy":0.0017,"dx":0.0017,"nx":28,"ny":28,"refTime":"2025-12-31T09:00:00:Z","depth":"4","parameterNumber":3,"parameterNumberName":"V-component_of_CURRENTS"},"data":[0,0,0,0,0,0,0,0,0,0,0,0,0,0,0,0,0,0,0,0,0,0,0,0,0,0,0,0,0,0,0,0,0,0,0,0,0,0,0,0,0,0,0,0,0,0,0,0,0,0,0,0,0,0,0,0,0,0,0.0108,0.0108,0,0.0079,0.0078,0.0078,0.0048,0.0048,0.0047,0.0047,-0.0017,-0.0018,-0.002,0,0,0,0,0,0,0,0,0,0,0,0,0,0.0093,0.0094,0.0108,0.0108,0.0108,0.0079,0.0078,0.0078,0.0048,0.0048,0.0047,0.0047,-0.0016,-0.0018,-0.002,0,0,0,0,0,0,0,0,0,0,0,0,0,0.0084,0.0094,0.0108,0.009,0.0089,0.0079,0.0078,0.0077,0.0048,0.0048,0.0047,0.0047,-0.0016,-0.0018,-0.002,-0.0025,0,0,-0.0027,-0.0028,0,0,0,0,0,0,0,0,0.0085,0.0085,0.0093,0.0092,0.009,0.0068,0.0049,0.0042,0.0048,0.0062,0.0047,0.0047,0.0009,0.0005,-0.0001,-0.0028,-0.0031,-0.0027,-0.0028,-0.0029,-0.003,0,0,0,0,0,0,0,0.0086,0.0086,0.0095,0.0093,0.0091,0.0068,0.0067,0.0048,0.0037,0.0061,0.0059,0.0058,0.0008,0.0001,-0.0003,-0.0032,-0.0027,-0.0029,-0.003,-0.0031,-0.0067,-0.0067,0,0,0,0,0,0,0.0095,0.0087,0.0096,0.0095,0.0088,0.0069,0.0067,0.0074,0.0038,0.0032,0.0058,0.0057,0.0005,-0.0,-0.0005,-0.0,-0.0029,-0.0031,-0.0032,-0.0068,-0.0067,-0.0067,0,0,0,0,0,0,0.0095,0.0096,0.0098,0.009,0.0089,0.007,0.0078,0.0074,0.0069,0.0036,0.003,0.0058,0.0005,-0.0002,-0.0018,-0.0004,-0.0032,-0.0034,-0.0068,-0.0068,-0.0067,0.0001,0,0,0,0,0,0,0.0095,0.0097,0.0105,0.0091,0.009,0.0102,0.0078,0.0074,0.007,0.0067,0.0034,0.0028,0.0004,-0.0014,-0.002,-0.0007,-0.0036,-0.0069,-0.0068,-0.0067,-0.0002,0.0004,0.0008,0,0,0,0,0,0.0094,0.0113,0.0106,0.0107,0.0102,0.0103,0.01,0.0083,0.007,0.0076,0.005,0.0029,-0.0014,-0.0016,-0.0022,-0.001,-0.0069,-0.0068,-0.0067,-0.0004,0.0003,0.0008,0,0,0,0,0,0,0.0111,0.0112,0.0103,0.0121,0.0115,0.0098,0.0101,0.0089,0.0073,0.0068,0.0033,0.0025,0.0017,-0.0008,-0.0008,-0.002,-0.0045,-0.0046,0.0005,0.0011,0.0016,0.0029,-0.0038,0,0,0,0,0,0.0119,0.0133,0.0125,0.0138,0.0138,0.0119,0.0116,0.0106,0.009,0.0083,0.006,0.0034,0.0015,0.0005,-0.0017,-0.0022,-0.0066,-0.0019,-0.0014,-0.001,-0.0005,-0.0062,-0.0062,-0.0065,-0.0065,-0.0065,0,0,0.0127,0.0131,0.0136,0.0142,0.0134,0.015,0.0117,0.0119,0.0129,0.0078,0.0082,0.0051,0.0016,0.0011,0.0005,-0.0007,-0.0033,-0.0009,-0.0005,-0.0002,-0.0061,-0.0061,-0.0061,-0.0064,-0.0064,-0.0064,0,0,0.0158,0.0155,0.0178,0.018,0.0179,0.0171,0.0176,0.0163,0.0153,0.0151,0.0116,0.0092,0.0068,0.0045,0.003,0.0048,-0.0005,0.0043,0.008,0.0026,0.0025,0.0024,-0.0036,-0.0042,0.0047,0.0047,0.0047,0,0.0166,0.02,0.0184,0.0209,0.022,0.0187,0.0217,0.0204,0.0188,0.0181,0.0162,0.0114,0.0085,0.0071,0.0079,0.0061,0.0017,0.0063,0.0032,0.0031,0.0029,-0.0033,-0.0041,0.005,0.005,0.0049,0.0049,0,0.0215,0.0243,0.0257,0.0282,0.029,0.0308,0.0295,0.0289,0.027,0.0255,0.0232,0.0182,0.0154,0.014,0.0117,0.0095,0.0064,0.0045,0.0019,0.0033,-0.0033,-0.0043,0.0055,0.0054,0.0053,0.0052,0,0,0.0235,0.0283,0.029,0.0319,0.0332,0.0346,0.0356,0.0359,0.0365,0.0326,0.0324,0.028,0.0242,0.0222,0.0179,0.0132,0.0079,0.0091,0.0086,0.0035,-0.005,-0.0059,-0.0071,0.0053,0.0052,0.0051,-0.0092,0,0.0279,0.0347,0.0361,0.0424,0.0456,0.0439,0.0456,0.0448,0.0427,0.0414,0.0343,0.033,0.0277,0.0264,0.0207,0.0114,0.0057,0.0119,-0.006,-0.0065,-0.0071,-0.0081,0.0047,-0.01,-0.0102,-0.0104,-0.0105,0,0.0326,0.0368,0.044,0.0498,0.051,0.0543,0.056,0.0571,0.0536,0.0518,0.0474,0.0419,0.0349,0.0301,0.0137,0.0178,0.0074,-0.0008,-0.0016,-0.0054,-0.0092,-0.0118,-0.0124,-0.0122,-0.0121,-0.012,-0.0118,0,0.0351,0.0426,0.0488,0.0508,0.0561,0.0587,0.0611,0.0602,0.0621,0.0584,0.0584,0.0483,0.0433,0.0292,0.0123,0.0128,-0.0072,-0.0088,-0.0201,-0.0203,-0.0183,-0.018,-0.0209,-0.0209,-0.0209,-0.0208,-0.0208,0,0.0396,0.0448,0.0508,0.0545,0.0617,0.0633,0.0699,0.0696,0.0703,0.0732,0.0645,0.0621,0.0428,0.0292,0.0135,-0.0066,-0.0069,-0.0199,-0.024,-0.0152,-0.0144,-0.0191,-0.0186,-0.0214,-0.0212,-0.0211,-0.021,0,0.0426,0.0458,0.0539,0.061,0.0637,0.0689,0.0778,0.0819,0.0812,0.084,0.0834,0.0714,0.0534,0.0328,0.0085,-0.0043,-0.0235,-0.0306,-0.0203,-0.0235,-0.0335,-0.0325,-0.0443,-0.0444,-0.0445,-0.0446,-0.0447,0,0.0451,0.0491,0.0595,0.0643,0.0687,0.077,0.083,0.0869,0.0917,0.0893,0.0904,0.0746,0.064,0.0294,0.0065,-0.0245,-0.0286,-0.0388,-0.0355,-0.033,-0.0359,-0.0347,-0.0337,-0.0449,-0.045,-0.045,-0.045,0,0.0495,0.053,0.0606,0.0711,0.079,0.0879,0.0966,0.1008,0.104,0.1037,0.0967,0.0786,0.0574,0.0298,0.0052,-0.0169,-0.032,-0.0401,-0.04,-0.0371,-0.034,-0.0364,-0.0352,-0.0455,-0.0454,-0.0454,-0.0453,0,0.0539,0.0593,0.0686,0.0781,0.0877,0.0957,0.1002,0.1053,0.1092,0.1068,0.1032,0.0809,0.0674,0.0334,0.0106,-0.0112,-0.0165,-0.0224,-0.0233,-0.0231,-0.0126,-0.0053,-0.0118,0,0,0,0,0,0.0578,0.064,0.0739,0.0846,0.0943,0.0993,0.108,0.1112,0.1139,0.111,0.108,0.0887,0.0544,0.0384,0.0166,0.0065,-0.0217,-0.0201,-0.0293,-0.0479,-0.0474,-0.0387,0,0,0,0,0,0,0.0602,0.0698,0.0751,0.0879,0.0954,0.1061,0.1114,0.1129,0.1112,0.11,0.0922,0.0837,0.05,0.0676,0.0164,0.0094,0.0006,-0.0361,-0.0366,-0.0482,-0.0477,-0.0473,-0.0382,0,0,0,0,0]}]]